Wenatchee, WA

3:16 AM PDT on September 20, 2017 (GMT -0700)
Pangborn Memorial

Weather History for KEAT - April, 2013

Change the Weather History Date:

Monday, April 8, 2013

  Actual Average Record
Temperature  
Mean Temperature 40 °F 44 °F  
Max Temperature 48 °F 55 °F 78 °F (2016)
Min Temperature 32 °F 34 °F 27 °F (2012)
Degree Days  
Heating Degree Days 25 21  
Month to date heating degree days 133 170  
Since 1 July heating degree days 5775 6178  
Cooling Degree Days 0 0  
Month to date cooling degree days 0 0  
Year to date cooling degree days 0 0  
Moisture  
Dew Point 34 °F    
Average Humidity 62    
Maximum Humidity 77    
Minimum Humidity 47    
Precipitation  
Precipitation T in 0.05 in 0.34 in (2006)
Month to date precipitation 0.52 0.40  
Year to date precipitation 3.28 5.44  
Snow  
Snow 0.00 in 0.10 in - ()
Month to date snowfall 0.0 0.9  
Since 1 July snowfall 48.2 52.6  
Snow Depth 0.00 in    
Sea Level Pressure  
Sea Level Pressure 30.01 in    
Wind  
Wind Speed 7 mph (North)    
Max Wind Speed 15 mph    
Max Gust Speed -    
Visibility 10 miles    
Events Rain    
T = Trace of Precipitation, MM = Missing Value Source: NWS Daily Summary

Daily Weather History Graph

Daily Weather History Graph

Search for Another Location

Airport or City:

Trip Planner

Search our weather history database for the weather conditions in past years. The results will help you decide how hot, cold, wet, or windy it might be!

Date:

Astronomy

Apr. 08, 2013 Rise Set
Actual Time 6:25 AM PDT 7:40 PM PDT
Civil Twilight 5:53 AM PDT 8:12 PM PDT
Nautical Twilight 5:15 AM PDT 8:50 PM PDT
Astronomical Twilight 4:34 AM PDT 9:31 PM PDT
Moon 5:23 AM PDT (4/8) 6:16 PM PDT (4/8)
Length of Visible Light 14h 18m
Length of Day
13h 15m
Waning Crescent, 3% of the Moon is Illuminated
Apr 8
Waning Crescent
Apr 10
New
Apr 18
First Quarter
Apr 25
Full
May 2
Last Quarter

Hourly Weather History & Observations

Time (PDT) Temp. Windchill Dew Point Humidity Pressure Visibility Wind Dir Wind Speed Gust Speed Precip Events Conditions
12:55 AM 42.1 °F 34.9 °F 27.0 °F 55% 29.78 in 10.0 mi WNW 13.8 mph - N/A   Clear
1:55 AM 42.1 °F 38.4 °F 28.0 °F 58% 29.81 in 10.0 mi WNW 5.8 mph - N/A   Scattered Clouds
2:55 AM 43.0 °F 36.8 °F 30.0 °F 60% 29.82 in 10.0 mi NW 11.5 mph - 0.00 in   Overcast
3:55 AM 42.1 °F 34.5 °F 30.9 °F 65% 29.85 in 10.0 mi West 15.0 mph - 0.00 in Rain Light Rain
4:55 AM 41.0 °F 33.9 °F 33.1 °F 73% 29.87 in 10.0 mi WNW 12.7 mph - 0.00 in Rain Light Rain
5:55 AM 39.9 °F 36.7 °F 33.1 °F 77% 29.89 in 10.0 mi NNW 4.6 mph - 0.00 in   Overcast
6:55 AM 41.0 °F 39.0 °F 33.1 °F 73% 29.92 in 10.0 mi NNW 3.5 mph - N/A   Overcast
7:55 AM 41.0 °F - 34.0 °F 76% 29.96 in 10.0 mi Calm Calm - N/A   Overcast
8:55 AM 43.0 °F - 33.1 °F 68% 29.98 in 10.0 mi Calm Calm - N/A   Overcast
9:55 AM 46.0 °F - 34.0 °F 63% 30.00 in 10.0 mi Calm Calm - N/A   Overcast
10:55 AM 48.9 °F - 32.0 °F 52% 30.01 in 10.0 mi Variable 5.8 mph - N/A   Overcast
11:55 AM 50.0 °F - 32.0 °F 50% 30.03 in 10.0 mi Calm Calm - N/A   Overcast
12:55 PM 52.0 °F - 33.1 °F 49% 30.03 in 10.0 mi Calm Calm - N/A   Overcast
1:55 PM 54.0 °F - 34.0 °F 47% 30.03 in 10.0 mi East 5.8 mph - N/A   Overcast
2:55 PM 54.0 °F - 35.1 °F 49% 30.04 in 10.0 mi ESE 5.8 mph - 0.00 in Rain Light Rain
3:55 PM 54.0 °F - 35.1 °F 49% 30.06 in 10.0 mi NE 5.8 mph - 0.00 in   Overcast
4:55 PM 51.1 °F - 39.9 °F 66% 30.08 in 10.0 mi East 8.1 mph - 0.02 in   Overcast
5:55 PM 52.0 °F - 37.0 °F 57% 30.10 in 10.0 mi ESE 5.8 mph - N/A   Overcast
6:55 PM 51.1 °F - 37.9 °F 61% 30.11 in 10.0 mi East 5.8 mph - 0.00 in   Overcast
7:55 PM 48.9 °F - 39.0 °F 69% 30.13 in 10.0 mi ENE 4.6 mph - N/A   Overcast
8:55 PM 46.0 °F - 37.9 °F 73% 30.16 in 10.0 mi Calm Calm - N/A   Clear
9:55 PM 46.9 °F - 36.0 °F 66% 30.18 in 10.0 mi NW 4.6 mph - N/A   Overcast
10:55 PM 45.0 °F 41.8 °F 34.0 °F 65% 30.20 in 10.0 mi NNW 5.8 mph - N/A   Clear
11:55 PM 44.1 °F 39.5 °F 32.0 °F 63% 30.22 in 10.0 mi NNW 8.1 mph - N/A   Clear